RH
6 6 5 6 7 7 7 6 7 7 7 7 6 6 6 6 5 5 6 6 7 9 14 18 19 19 19 20 21 23 25 30 32
9 8 8 7 8 8 8 7 7 8 9 9 9 8 8 7 7 7 7 7 9 13 17 20 20 20 21 21 23 25 26 28 29
13 10 9 9 9 10 9 9 9 8 8 10 10 10 10 9 8 8 8 9 12 15 20 21 21 22 23 23 25 26 28 28 29
15 13 10 11 10 11 11 10 10 10 9 10 10 11 11 11 10 10 10 13 16 20 22 23 24 25 25 25 26 28 28 30 31
18 15 13 11 12 12 11 11 11 11 11 11 11 13 13 13 12 12 13 17 21 24 25 26 26 26 28 29 29 30 30 29 29
23 17 14 13 12 13 12 12 11 11 11 12 13 14 15 15 15 16 18 21 24 25 26 26 26 26 29 31 31 32 32 30 33
27 19 15 13 13 12 12 12 11 11 11 12 13 14 17 18 18 20 22 24 25 27 28 27 28 29 32 34 34 34 34 33 34
26 20 13 12 11 11 12 11 11 12 13 14 16 17 18 20 21 22 24 25 26 28 27 29 30 32 34 36 38 38 37 37 39
24 18 14 12 11 10 10 11 11 13 16 17 17 19 20 22 23 24 25 25 25 25 26 29 31 34 37 37 39 40 42 40 44
27 19 13 12 10 10 10 12 15 15 16 18 19 20 21 23 24 25 25 24 24 25 26 30 29 33 36 37 41 45 45 43 48
32 24 17 13 11 11 11 12 15 17 19 19 19 21 22 24 24 26 24 22 23 25 29 30 32 34 33 31 34 41 43 45 51
33 25 23 15 13 13 14 42 15 18 18 20 21 21 23 24 25 25 25 26 26 27 29 31 32 34 37 37 37 40 42 43 50
34 30 25 19 14 16 69 39 20 20 19 20 23 23 23 23 25 26 29 32 33 34 34 34 31 28 29 28 32 40 44 42 47
34 29 24 20 18 59 77 21 21 20 19 18 20 22 22 21 21 26 27 26 30 31 30 28 26 25 28 27 23 27 35 45 54
43 35 50 22 23 83 46 24 23 21 19 18 17 18 18 19 19 19 20 20 23 26 24 25 24 23 22 21 27 39 60 61 58
89 87 83 30 44 95 42 27 26 27 22 24 25 21 20 19 20 21 20 18 18 19 21 20 21 29 41 70 71 72 74 71 63
95 96 79 42 76 94 59 72 41 66 48 35 32 29 27 24 22 20 21 18 21 23 34 43 57 62 71 72 82 88 79 70 69
96 94 96 86 96 93 89 86 88 84 80 55 72 66 53 35 37 44 40 40 42 54 65 65 74 81 80 79 84 80 78 78 72
95 95 97 97 94 99 99 98 100 97 96 94 97 95 99 87 87 73 61 53 56 72 75 91 87 86 88 85 84 83 78 75 68
95 92 96 97 95 96 94 97 97 97 95 96 97 97 96 96 86 82 92 97 92 87 85 89 89 84 85 80 83 77 72 67 64
Wind_Speed
19 18 17 15 12 10 9 8 8 8 8 7 7 6 6 6 6 6 6 7 6 7 8 11 13 14 14 15 16 17 19 20 21
21 20 18 17 15 12 11 10 9 9 8 9 8 8 7 7 7 7 7 7 7 8 9 12 13 14 14 15 16 17 19 19 21
22 21 20 19 17 15 13 12 11 10 10 10 10 10 8 8 8 8 8 8 8 9 11 12 13 14 15 15 17 18 20 21 22
24 23 22 21 19 17 16 14 13 12 11 12 12 11 10 10 10 10 10 9 10 11 12 13 14 14 15 16 18 19 21 22 23
26 25 25 23 22 20 18 16 15 14 13 13 13 13 12 11 11 11 11 11 11 12 13 14 15 16 17 17 18 20 22 23 23
29 28 27 25 24 23 21 20 18 16 16 15 14 14 14 13 12 12 12 13 14 14 15 16 17 18 19 19 20 22 23 24 24
31 31 30 29 28 26 24 22 21 19 18 17 16 16 15 15 14 14 14 14 16 17 18 18 19 20 20 21 21 24 25 26 27
34 32 32 31 29 28 26 25 23 21 20 19 18 18 18 17 17 17 17 17 18 19 20 20 20 22 22 22 24 25 26 27 29
34 35 34 32 31 30 28 26 25 24 23 22 21 20 20 20 20 20 20 21 21 22 22 22 22 24 24 25 26 27 27 28 31
37 37 35 34 33 31 31 28 27 26 26 25 23 23 23 23 23 23 23 24 25 24 24 24 25 26 27 28 28 28 29 30 33
40 39 38 36 36 33 32 28 32 29 28 27 27 27 26 27 27 26 26 27 27 27 26 27 28 30 31 31 30 29 30 30 33
44 42 41 41 38 35 31 35 35 32 31 30 30 30 30 30 30 29 30 30 29 29 29 29 30 30 32 35 34 33 34 36 36
47 46 45 43 41 35 39 42 38 35 33 33 33 33 34 33 33 33 33 33 32 32 32 33 33 33 34 36 38 37 38 39 39
50 50 48 46 43 39 43 42 40 38 36 36 37 36 37 36 36 37 36 36 36 36 36 35 36 36 37 37 39 40 41 40 39
53 52 52 49 46 46 43 45 42 39 39 38 39 38 39 39 38 38 38 39 39 40 40 38 38 38 39 39 39 39 37 39 43
55 60 58 53 51 49 43 40 41 40 41 40 40 42 41 41 40 40 39 40 40 42 42 40 39 39 39 39 38 38 40 43 44
61 57 54 55 52 39 41 41 44 43 42 43 43 42 42 42 44 41 42 43 42 44 43 41 39 40 41 40 41 42 43 43 44
56 59 56 54 45 38 37 40 45 43 44 42 42 42 42 46 45 44 44 46 45 45 43 42 42 43 42 44 43 41 42 42 43
39 56 56 54 34 27 33 40 38 41 42 43 40 37 36 42 44 44 45 47 48 47 43 40 40 43 42 42 43 43 44 44 45
45 44 55 46 42 35 35 43 40 40 49 39 42 43 42 39 38 36 37 39 42 41 42 42 43 42 43 44 44 47 48 51 51
Wind_Direction
235 232 232 232 233 238 247 254 258 261 267 273 277 281 282 283 284 285 289 294 297 303 315 327 334 338 340 342 343 342 340 341 342
235 234 235 235 235 237 242 247 256 263 267 272 274 276 275 276 278 281 283 283 287 299 314 323 328 332 335 337 336 337 340 341 341
237 238 238 238 237 237 241 244 250 258 267 270 271 271 273 275 276 276 276 280 287 296 308 317 323 328 330 329 331 334 334 333 332
237 239 240 241 243 241 241 245 250 256 263 266 268 266 265 265 269 273 275 280 288 298 307 312 317 320 322 324 327 329 330 331 331
235 237 241 243 245 247 248 247 249 253 259 261 263 263 262 262 263 266 272 279 286 294 300 304 310 314 313 317 321 324 324 323 326
238 238 239 242 245 248 249 251 251 254 259 261 261 262 263 262 262 265 269 279 287 291 295 299 305 306 307 312 314 317 317 318 322
241 241 242 241 243 245 247 250 252 253 256 259 260 261 262 262 263 267 271 276 283 288 292 296 297 299 302 305 306 311 313 316 317
240 242 242 243 244 245 245 247 249 250 253 257 259 261 262 262 263 265 270 274 278 283 287 289 292 292 295 299 301 306 309 311 313
238 240 242 242 242 244 245 245 246 251 252 254 257 259 261 262 264 266 268 273 276 280 283 285 287 289 292 294 297 300 305 308 310
236 240 240 241 241 243 244 245 249 251 255 256 258 259 261 262 264 266 270 273 275 277 279 282 285 287 290 294 295 298 300 305 314
236 238 240 241 241 240 244 246 253 253 256 258 261 261 260 263 264 267 271 272 275 277 279 282 286 290 292 292 292 296 296 303 310
235 236 237 240 240 239 244 256 251 252 255 257 260 261 262 264 266 267 269 271 273 275 277 280 283 285 289 292 294 295 297 300 305
235 237 237 237 237 235 248 250 250 252 254 257 258 261 263 264 265 266 268 270 270 274 276 278 279 282 285 288 291 294 293 300 302
233 235 236 234 234 239 248 246 248 252 254 256 258 258 261 263 265 266 268 271 272 272 273 277 278 281 284 287 289 292 295 297 297
231 233 236 235 232 241 242 247 250 253 257 259 258 260 262 263 264 266 268 270 272 274 275 276 279 283 285 288 288 290 291 295 297
234 238 238 234 233 242 243 252 257 259 260 261 262 261 262 264 263 264 267 269 271 272 274 276 279 281 282 286 288 286 288 294 296
242 244 237 236 241 240 246 254 256 259 264 265 267 266 265 266 264 264 268 268 268 271 274 276 279 281 284 284 286 287 290 293 296
246 242 243 243 248 248 250 258 261 264 265 262 264 266 267 264 264 265 266 268 268 270 275 280 283 285 286 287 288 289 292 295 294
258 247 246 246 241 241 246 252 254 264 261 259 258 264 266 268 264 263 266 269 270 273 278 280 287 287 287 288 291 292 292 294 294
253 256 255 247 236 239 239 258 253 247 263 250 259 257 257 263 267 270 268 271 271 272 273 277 283 284 286 287 289 289 292 292 292